Flag for Canada Weather past 2 weeks in Edmonton, Alberta, Canada

Now
61 °F

Partly sunny.


Feels Like: 61 °F
Forecast: 44 / 62 °F
Wind: 3 mph from North

Location: Edmonton Municipal

Current Time: Sep 1, 2014 at 5:40:32 PM

Latest Report: Sep 1, 2014 at 5:00 PM


Visibility: 9 mi

Pressure: 29.76 "Hg

Humidity: 59%

Dew point: 46 °F

Location of EdmontonLocation

Historic Weather in Edmonton — Graph

°F

Edmonton temperature yesterday

Maximum temperature yesterday: 66 °F (at 2:57 PM)
Minimum temperature yesterday: 48 °F (at 4:00 AM)
Average temperature yesterday: 57 °F

Past Weeks' High & Low Weather Summary

 TemperatureHumidityPressure
High81 °F (Aug 18, 1:00 PM)94% (Aug 18, 3:00 AM)30.41 "Hg (Aug 18, 3:00 AM)
Low41 °F (Aug 23, 7:00 AM)35% (Aug 28, 5:00 PM)29.62 "Hg (Aug 29, 11:00 PM)
Average60 °F65%29.95 "Hg
* Reported Aug 17 4:00 PM — Sep 1 4:00 PM, Edmonton, Weather by CustomWeather, © 2014

Note: Actual official high and low records may vary slightly from our data, if they occured in-between our weather recording intervals... More about our weather records

Advertising

Edmonton weather history for previous 24 hours

 ConditionsComfort  
Time TempWeatherWind HumidityBarometerVisibility
4:00 PM
Sep 1
63 °FScattered clouds.6 mph56%29.76 "Hg9 mi
3:00 PM61 °FScattered clouds.6 mph55%29.78 "Hg9 mi
2:00 PM59 °FLight rain. Passing clouds.6 mph63%29.79 "Hg9 mi
1:53 PM59 °FLight rain. Scattered clouds.5 mph59%29.77 "Hg9 mi
1:00 PM59 °FLight rain. Broken clouds.2 mph55%29.79 "Hg9 mi
12:46 PM59 °FLight rain. Passing clouds.No wind55%29.77 "Hg9 mi
12:00 PM57 °FScattered clouds.No wind63%29.80 "Hg9 mi
11:54 AM59 °FScattered clouds.No wind59%29.78 "Hg9 mi
11:00 AM55 °FPartly sunny.5 mph63%29.81 "Hg9 mi
10:00 AM52 °FPassing clouds.3 mph77%29.82 "Hg9 mi
9:00 AM50 °FPartly sunny.3 mph76%29.82 "Hg9 mi
8:00 AM46 °FSunny.5 mph82%29.82 "Hg9 mi
7:00 AM45 °FClear.6 mph87%29.81 "Hg9 mi
6:00 AM46 °FClear.5 mph82%29.81 "Hg9 mi
5:00 AM46 °FClear.2 mph82%29.83 "Hg9 mi
4:00 AM50 °FClear.7 mph71%29.82 "Hg9 mi
3:00 AM50 °FPassing clouds.5 mph71%29.81 "Hg9 mi
2:00 AM52 °FPassing clouds.7 mph67%29.81 "Hg9 mi
1:00 AM52 °FClear.No wind67%29.81 "Hg9 mi
12:00 AM54 °FClear.3 mph58%29.79 "Hg9 mi
11:00 PM
Aug 31
54 °FClear.5 mph58%29.80 "Hg9 mi
10:00 PM55 °FClear.7 mph55%29.80 "Hg9 mi
9:00 PM57 °FSunny.8 mph51%29.78 "Hg9 mi
8:00 PM61 °FPassing clouds.9 mph48%29.77 "Hg9 mi
7:00 PM64 °FPassing clouds.12 mph40%29.75 "Hg9 mi
6:00 PM66 °FPassing clouds.17 mph37%29.74 "Hg9 mi
5:00 PM63 °FPassing clouds.5 mph45%29.75 "Hg9 mi
Weather by CustomWeather, © 2014

See weather overviewHow to use our weather pages